Time,TemperatureF,DewpointF,PressureIn,WindDirection,WindDirectionDegrees,WindSpeedMPH,WindSpeedGustMPH,Humidity,HourlyPrecipIn,Conditions,Clouds,dailyrainin,SoftwareType,DateUTC
2013-05-20 00:00:00,58.0,-99.9,-100.00,WNW,294,23.0,27.0,-999,-99.99,,,-99.99,,2013-05-20 07:00:00,
2013-05-20 01:00:00,57.0,-99.9,-100.00,NW,305,20.0,22.0,-999,-99.99,,,-99.99,,2013-05-20 08:00:00,
2013-05-20 02:00:00,56.0,-99.9,-100.00,WNW,300,17.0,20.0,-999,-99.99,,,-99.99,,2013-05-20 09:00:00,
2013-05-20 03:00:00,55.0,-99.9,-100.00,West,280,16.0,20.0,-999,-99.99,,,-99.99,,2013-05-20 10:00:00,
2013-05-20 04:00:00,53.0,-99.9,-100.00,WSW,238,9.0,12.0,-999,-99.99,,,-99.99,,2013-05-20 11:00:00,
2013-05-20 05:00:00,54.0,-99.9,-100.00,SW,235,7.0,9.0,-999,-99.99,,,-99.99,,2013-05-20 12:00:00,
2013-05-20 08:00:00,55.0,-99.9,-100.00,SSE,160,9.0,12.0,-999,-99.99,,,-99.99,,2013-05-20 15:00:00,
2013-05-20 09:00:00,58.0,-99.9,-100.00,SSE,166,5.0,10.0,-999,-99.99,,,-99.99,,2013-05-20 16:00:00,
2013-05-20 10:00:00,62.0,-99.9,-100.00,South,171,9.0,14.0,-999,-99.99,,,-99.99,,2013-05-20 17:00:00,
2013-05-20 11:00:00,67.0,-99.9,-100.00,SSW,194,9.0,16.0,-999,-99.99,,,-99.99,,2013-05-20 18:00:00,
2013-05-20 12:00:00,70.0,-99.9,-100.00,SSE,165,8.0,14.0,-999,-99.99,,,-99.99,,2013-05-20 19:00:00,
2013-05-20 14:00:00,73.0,-99.9,-100.00,SSE,147,8.0,21.0,-999,-99.99,,,-99.99,,2013-05-20 21:00:00,
2013-05-20 15:00:00,77.0,-99.9,-100.00,ENE,78,12.0,20.0,-999,-99.99,,,-99.99,,2013-05-20 22:00:00,
2013-05-20 16:00:00,76.0,-99.9,-100.00,SE,137,13.0,24.0,-999,-99.99,,,-99.99,,2013-05-20 23:00:00,
2013-05-20 18:00:00,77.0,-99.9,-100.00,SE,128,9.0,15.0,-999,-99.99,,,-99.99,,2013-05-21 01:00:00,
2013-05-20 19:00:00,75.0,-99.9,-100.00,SSE,156,7.0,13.0,-999,-99.99,,,-99.99,,2013-05-21 02:00:00,
2013-05-20 20:00:00,74.0,-99.9,-100.00,ESE,123,3.0,7.0,-999,-99.99,,,-99.99,,2013-05-21 03:00:00,
2013-05-20 21:00:00,71.0,-99.9,-100.00,South,180,6.0,7.0,-999,-99.99,,,-99.99,,2013-05-21 04:00:00,
2013-05-20 21:53:00,71.0,-99.9,-100.00,South,180,6.0,7.0,-999,-99.99,,,-99.99,,2013-05-21 04:53:00,
2013-05-20 22:00:00,71.0,-99.9,-100.00,ENE,74,3.0,3.0,-999,-99.99,,,-99.99,,2013-05-21 05:00:00,
2013-05-20 22:52:00,71.0,-99.9,-100.00,ENE,74,3.0,3.0,-999,-99.99,,,-99.99,,2013-05-21 05:52:00,
2013-05-20 23:00:00,70.0,-99.9,-100.00,NNE,32,6.0,7.0,-999,-99.99,,,-99.99,,2013-05-21 06:00:00,
2013-05-20 23:52:00,70.0,-99.9,-100.00,NNE,32,6.0,7.0,-999,-99.99,,,-99.99,,2013-05-21 06:52:00,